COSMOS 2404 (701) 1 28112C 03056A 08280.99983796 .00000000 00000-0 00000-0 0 2809 2 28112 64.1297 291.6418 0041059 102.6952 279.5538 2.13104801 10 COSMOS 2403 (795) 1 28114C 03056C 08280.99983796 .00000000 00000-0 00000-0 0 2801 2 28114 64.1451 291.6661 0035386 81.7132 36.8431 2.13104641 15 COSMOS 2413 (796) 1 28508C 04053A 08280.99983796 .00000000 00000-0 00000-0 0 2806 2 28508 64.0214 290.5079 0011060 170.4928 79.1097 2.13103943 13 COSMOS 2411 (712) 1 28509C 04053B 08280.99983796 .00000000 00000-0 00000-0 0 2807 2 28509 64.0159 290.4800 0006473 182.4637 153.5976 2.13102864 19 COSMOS 2419 (714) 1 28915C 05050A 08280.99983796 .00000001 00000-0 00000-0 0 2807 2 28915 64.8620 172.1593 0008069 342.4375 21.6698 2.13102077 18 COSMOS 2418 (713) 1 28916C 05050B 08280.99983796 .00000000 00000-0 00000-0 0 2807 2 28916 64.8805 172.1863 0019303 338.5736 337.8949 2.13103574 18 COSMOS 2425 (716) 1 29670C 06062A 08280.99983796 -.00000000 00000-0 00000-0 0 2800 2 29670 65.2254 51.5557 0021975 353.6808 358.2242 2.13103512 10 COSMOS 2426 (717) 1 29671C 06062B 08280.99983796 -.00000002 00000-0 00000-0 0 2803 2 29671 65.2415 51.5790 0020812 167.8356 49.8953 2.13103805 18 COSMOS 2424 (715) 1 29672C 06062C 08280.99983796 -.00000002 00000-0 00000-0 0 2804 2 29672 65.2270 51.5587 0018475 166.6292 231.2506 2.13103964 17 COSMOS 2433 (720) 1 32275C 07052A 08280.99983796 .00000001 00000-0 00000-0 0 2805 2 32275 64.8741 171.8958 0001764 268.0089 277.3890 2.13102499 19 COSMOS 2432 (719) 1 32276C 07052B 08280.99983796 .00000000 00000-0 00000-0 0 2805 2 32276 64.8874 171.9144 0014796 342.7938 157.4070 2.13102367 19 COSMOS 2431 (718) 1 32277C 07052C 08280.99983796 .00000001 00000-0 00000-0 0 2807 2 32277 64.8900 171.9078 0018166 188.3941 87.0273 2.13102361 16 COSMOS 2434 (721) 1 32393C 07065A 08280.99983796 -.00000001 00000-0 00000-0 0 2801 2 32393 64.8429 52.2035 0006509 132.7628 308.3783 2.13103570 16 COSMOS 2436 (723) 1 32395C 07065C 08280.99983796 -.00000000 00000-0 00000-0 0 2802 2 32395 64.8555 52.2020 0016601 359.1867 172.4813 2.13103697 10